Regional Weather Roundup
Issued by NWS Mt. Holly, NJ

Home | Current Version | Previous Version | Text Only | Print | Product List | Glossary On
Versions: 1 2 3 4 5 6 7 8 9 10 11 12 13 14 15 16 17 18 19 20 21 22 23 24 25 26 27 28 29 30 31 32 33 34 35 36 37 38 39 40 41 42 43 44 45 46 47 48 49 50
000
ASUS41 KPHI 032111
RWRPHI

REGIONAL WEATHER ROUNDUP
NATIONAL WEATHER SERVICE MOUNT HOLLY NJ
500 PM EDT WED JUN 03 2015

NOTE:  "FAIR" INDICATES FEW OR NO CLOUDS BELOW 12,000 FEET WITH NO
SIGNIFICANT WEATHER AND/OR OBSTRUCTIONS TO VISIBILITY.

 * = STATION DOES NOT REPORT PRECIPITATION (E.G. RAIN, SNOW, ETC.)
        OR FOG.

NJZ015>026-032200-
SOUTHERN NEW JERSEY

CITY           SKY/WX    TMP DP  RH WIND       PRES   REMARKS
POMONA         CLOUDY    61  51  70 NE12      30.19R
RIO GRANDE*    CLOUDY   N/A N/A N/A NE14G20   30.17F
MILLVILLE      CLOUDY    62  52  69 E9        30.18R
WRIGHTSTOWN    CLOUDY    66  49  54 E10       30.15S
MOUNT HOLLY    CLOUDY    65  50  58 E9        30.17F
TRENTON        CLOUDY    68  51  54 SE7       30.16F

$$
NJZ001>014-032200-
NORTHERN NEW JERSEY

CITY           SKY/WX    TMP DP  RH WIND       PRES   REMARKS
SUSSEX         MOSUNNY   71  47  42 NE8       30.17F
ANDOVER*         N/A     71  51  49 CALM      30.16F
MORRISTOWN     PTSUNNY   75  54  46 CALM      30.16F
NEWARK         PTSUNNY   66  51  58 SE9       30.17S
TETERBORO      MOSUNNY   70  39  32 E7        30.16S
CALDWELL       MOSUNNY   71  45  39 E6        30.16F
SOMERVILLE     MOSUNNY   71  50  47 VRB3      30.14F
ALLAIRE*       CLOUDY    61  48  63 E10       30.20R
TOMS RIVER*    CLOUDY   N/A N/A N/A E7        30.19S

$$
PAZ043-044-047-054-055-060>062-066>071-032200-
EASTERN PENNSYLVANIA

CITY           SKY/WX    TMP DP  RH WIND       PRES   REMARKS
PHILADELPHIA   CLOUDY    69  52  54 E7        30.17F
NORTH PHILA    CLOUDY    69  49  48 E6        30.18F
BLUE BELL      PTSUNNY   68  54  60 SE6       30.16F
DOYLESTOWN     CLOUDY    65  52  62 VRB3      30.16F
QUAKERTOWN*    PTSUNNY   66  54  63 S3        30.18F
POTTSTOWN      PTSUNNY   65  54  67 E5        30.18F
LANCASTER      CLOUDY    63  54  72 E7        30.17S
COATESVILLE    CLOUDY    63  54  72 E6        30.18S
READING        PTSUNNY   64  52  64 NE5       30.16F
ALLENTOWN      PTSUNNY   69  51  52 CALM      30.16F
MOUNT POCONO   MOSUNNY   66  47  50 VRB5      30.18S
HAZLETON       MOSUNNY   68  50  52 SE3       30.19F
WILKES BARRE   SUNNY     74  46  36 NE3       30.14F

$$
DEZALL-MDZ008-012-015-019-020-032200-
DELAWARE AND EASTERN MARYLAND

CITY           SKY/WX    TMP DP  RH WIND       PRES   REMARKS
WILMINGTON     CLOUDY    67  54  63 NE5       30.17F
DOVER          CLOUDY    63  55  73 E13       30.14F
GEORGETOWN     CLOUDY    58  55  90 NE14      30.17S
EASTON         CLOUDY    59  59 100 E10       30.20S
ABERDEEN       CLOUDY    64  55  72 E12       30.16F
PATUXENT       CLOUDY    60  57  89 NE12      30.14S
OCEAN CITY     CLOUDY    60  56  86 NE13G23   30.14S
WALLOPS ISLAND CLOUDY    61  60  97 NE20      30.12S
CAMBRIDGE      CLOUDY    59  55  88 NE8       30.15S
SALISBURY      CLOUDY    58  56  93 NE13      30.14S

$$
PAZ001-021-NYZ056-072-MDZ011-DCZ001-032200-
OTHER NEARBY LOCATIONS

CITY           SKY/WX    TMP DP  RH WIND       PRES   REMARKS
HARRISBURG     CLOUDY    64  53  67 SE9       30.16S
STATE COLLEGE  PTSUNNY   63  54  72 S5        30.16F
WILLIAMSPORT   MOSUNNY   70  50  49 S3        30.13F
BINGHAMTON     SUNNY     67  47  48 S3        30.16F
NEW YORK CITY  MOSUNNY   64  52  64 VRB7      30.20F
BALTIMORE      CLOUDY    61  54  77 E8        30.16F
WASHINGTON DC  CLOUDY    63  56  78 NE9       30.16F

$$


USA.gov is the U.S. government's official web portal to all federal, state and local government web resources and services.